FW2123 Weather Reports


time (UTC)temp
F
wind
direction
speed
knots
gust
knots
rain 1hr
in
rain 24hr
in
rain mn
in
humidity
%
barometer
mb
20260507214541 63 195 1.7 3.5 0.00 0.00 0.00 64 1011.1
20260507213606 63 212 2.6 5.2 0.00 0.00 0.00 64 1011.1
20260507212531 63 196 1.7 2.6 0.00 0.00 0.00 65 1011.1
20260507211519 63 190 1.7 2.6 0.00 0.00 0.00 65 1011.2
20260507210544 63 173 2.6 3.5 0.00 0.00 0.00 65 1011.2
20260507205530 64 198 2.6 4.3 0.00 0.00 0.00 64 1011.2
20260507204518 65 215 2.6 4.3 0.00 0.00 0.00 62 1011.2
20260507203524 65 196 2.6 5.2 0.00 0.00 0.00 62 1011.2
20260507202529 65 200 2.6 4.3 0.00 0.00 0.00 62 1011.3
20260507201517 65 221 1.7 5.2 0.00 0.00 0.00 61 1011.2
20260507200522 65 184 2.6 4.3 0.00 0.00 0.00 61 1011.4
20260507195527 65 184 2.6 3.5 0.00 0.00 0.00 61 1011.5
20260507194535 64 212 3.5 7.0 0.00 0.00 0.00 62 1011.6
20260507193520 65 209 2.6 4.3 0.00 0.00 0.00 64 1011.7
20260507192526 64 215 1.7 3.5 0.00 0.00 0.00 65 1011.8
20260507191531 60 210 2.6 4.3 0.00 0.00 0.00 67 1011.9
20260507190518 61 210 2.6 4.3 0.00 0.00 0.00 66 1011.9
20260507185525 63 194 2.6 6.1 0.00 0.00 0.00 61 1011.9
20260507184530 65 215 1.7 3.5 0.00 0.00 0.00 59 1011.9
20260507183518 66 14 2.6 3.5 0.00 0.00 0.00 54 1012.0
20260507182523 66 7 1.7 3.5 0.00 0.00 0.00 54 1012.2
20260507181528 65 297 2.6 6.1 0.00 0.00 0.00 54 1012.4
20260507180515 64 19 2.6 5.2 0.00 0.00 0.00 58 1012.7
20260507175521 64 5 1.7 3.5 0.00 0.00 0.00 58 1012.6
20260507174527 63 10 2.6 3.5 0.00 0.00 0.00 57 1012.5
20260507173532 62 353 1.7 2.6 0.00 0.00 0.00 58 1012.8
20260507172540 61 358 2.6 3.5 0.00 0.00 0.00 57 1013.0
20260507171526 61 200 1.7 3.5 0.00 0.00 0.00 61 1013.5
20260507170631 61 220 0.9 2.6 0.00 0.00 0.00 63 1013.7
20260507165519 60 3 0.9 1.7 0.00 0.00 0.00 62 1013.9
20260507164524 59 212 2.6 3.5 0.00 0.00 0.00 62 1013.9
20260507163549 58 9 1.7 3.5 0.00 0.00 0.00 65 1014.2
20260507162517 58 329 0.9 2.6 0.00 0.00 0.00 61 1014.1
20260507161522 58 22 1.7 2.6 0.00 0.00 0.00 62 1014.4
20260507160528 58 347 1.7 3.5 0.00 0.00 0.00 64 1014.4
20260507155515 58 33 2.6 3.5 0.00 0.00 0.00 62 1014.4
20260507154521 58 5 2.6 3.5 0.00 0.00 0.00 63 1014.3
20260507153526 58 21 2.6 4.3 0.00 0.00 0.00 64 1014.5
20260507152532 57 2 2.6 4.3 0.00 0.00 0.00 64 1014.6
20260507151520 56 7 1.7 3.5 0.00 0.00 0.00 65 1014.9
20260507150545 56 359 3.5 4.3 0.00 0.00 0.00 65 1014.9
20260507145530 56 49 1.7 3.5 0.00 0.01 0.00 67 1015.0
20260507144518 56 26 1.7 2.6 0.00 0.01 0.00 68 1015.1
20260507143523 55 27 1.7 2.6 0.00 0.01 0.00 69 1015.3
20260507142529 55 14 0.9 2.6 0.00 0.03 0.00 71 1015.2
20260507141516 54 20 2.6 4.3 0.00 0.04 0.00 69 1015.3
20260507140522 54 24 1.7 3.5 0.00 0.05 0.00 71 1015.5
20260507135527 54 19 1.7 3.5 0.00 0.05 0.00 69 1015.6
20260507134515 54 48 1.7 2.6 0.00 0.06 0.00 70 1015.6
20260507133520 54 48 2.6 6.1 0.00 0.06 0.00 69 1015.6
20260507132526 54 28 2.6 3.5 0.00 0.07 0.00 71 1015.5
20260507131531 54 29 2.6 3.5 0.00 0.09 0.00 71 1015.5
20260507130519 54 26 2.6 4.3 0.00 0.11 0.00 71 1015.5
20260507125524 54 9 1.7 4.3 0.00 0.13 0.00 71 1015.5
20260507124550 54 14 2.6 3.5 0.00 0.14 0.00 72 1015.5
20260507123517 54 12 2.6 3.5 0.00 0.14 0.00 72 1015.5
20260507122523 54 33 2.6 3.5 0.00 0.14 0.00 73 1015.5
20260507121548 54 9 1.7 3.5 0.00 0.14 0.00 73 1015.3
20260507120516 54 356 2.6 4.3 0.00 0.14 0.00 76 1015.2
20260507115522 54 26 2.6 3.5 0.00 0.14 0.00 78 1015.2
20260507114527 54 18 2.6 4.3 0.00 0.15 0.00 78 1015.1
20260507113532 54 32 2.6 3.5 0.00 0.15 0.00 82 1014.9
20260507112540 54 23 2.6 3.5 0.00 0.15 0.00 86 1014.7
20260507111546 54 17 2.6 3.5 0.00 0.15 0.00 87 1014.6
20260507110531 54 13 2.6 3.5 0.00 0.15 0.00 88 1014.6
20260507105518 54 18 1.7 2.6 0.00 0.15 0.00 88 1014.6
20260507104524 54 32 2.6 4.3 0.00 0.15 0.00 88 1014.6
20260507103550 54 35 1.7 2.6 0.00 0.15 0.00 89 1014.4
20260507102518 54 32 2.6 3.5 0.00 0.15 0.00 89 1014.5
20260507101523 54 38 1.7 2.6 0.00 0.15 0.00 89 1014.2
20260507100548 54 28 1.7 2.6 0.00 0.15 0.00 90 1014.2
20260507095515 55 25 1.7 2.6 0.00 0.15 0.00 89 1014.2
20260507094522 55 52 0.9 1.7 0.00 0.15 0.00 88 1014.2
20260507093527 55 32 1.7 2.6 0.00 0.15 0.00 88 1014.1
20260507092526 55 8 1.7 4.3 0.00 0.15 0.00 88 1014.1
20260507091520 55 38 1.7 3.5 0.00 0.15 0.00 89 1013.8
20260507090545 55 17 2.6 3.5 0.00 0.15 0.00 90 1013.9
20260507085524 55 16 1.7 2.6 0.00 0.15 0.00 90 1014.0
20260507084519 55 359 1.7 2.6 0.00 0.15 0.00 90 1014.1
20260507083523 55 21 1.7 1.7 0.00 0.15 0.00 91 1013.8
20260507082523 55 33 1.7 2.6 0.00 0.15 0.00 91 1014.0
20260507081517 55 33 1.7 2.6 0.00 0.15 0.00 91 1013.7
20260507080522 55 26 1.7 3.5 0.00 0.15 0.00 92 1013.5
20260507075522 55 29 1.7 2.6 0.00 0.15 0.00 93 1013.3
20260507074535 55 32 1.7 2.6 0.00 0.15 0.00 93 1013.2
20260507073521 54 33 1.7 4.3 0.00 0.15 0.00 93 1013.3
20260507072520 54 17 1.7 3.5 0.00 0.15 0.00 94 1013.2
20260507071519 54 22 2.6 4.3 0.00 0.15 0.00 95 1013.3
20260507070520 54 3 2.6 4.3 0.00 0.15 0.00 94 1013.4
20260507065519 54 20 3.5 5.2 0.00 0.15 0.00 94 1013.3
20260507064518 54 22 3.5 6.1 0.00 0.15 0.00 96 1013.2
20260507063518 54 13 3.5 5.2 0.00 0.15 0.00 98 1013.5
20260507062537 54 9 2.6 4.3 0.00 0.15 0.00 99 1013.5
20260507061517 55 19 2.6 4.3 0.00 0.15 0.00 99 1013.2
20260507060516 55 26 2.6 5.2 0.00 0.15 0.00 99 1013.2
20260507055536 55 10 2.6 5.2 0.00 0.15 0.00 99 1013.3
20260507054515 55 8 3.5 3.5 0.00 0.15 0.00 99 1013.4
20260507053515 56 8 2.6 3.5 0.00 0.15 0.00 99 1013.3
20260507052520 56 23 2.6 3.5 0.00 0.15 0.00 99 1013.4
20260507051545 57 53 2.6 3.5 0.00 0.15 0.00 99 1013.3
20260507050531 57 17 2.6 3.5 0.00 0.15 0.00 99 1012.7
20260507045519 57 26 1.7 3.5 0.00 0.15 0.00 99 1013.2
20260507044524 58 355 2.6 3.5 0.00 0.15 0.00 99 1013.4
20260507043530 58 25 2.6 3.5 0.00 0.15 0.00 97 1012.8
20260507042518 59 21 2.6 4.3 0.00 0.15 0.00 95 1013.7
20260507041543 59 40 4.3 6.1 0.00 0.15 0.00 94 1013.4
20260507040528 60 25 2.6 4.3 0.00 0.15 0.00 94 1013.2
20260507035536 61 9 2.6 3.5 0.00 0.15 0.00 94 1012.8
20260507034522 61 22 2.6 3.5 0.00 0.15 0.00 90 1012.6
20260507033527 62 24 2.6 3.5 0.00 0.15 0.00 89 1012.7
20260507032533 62 17 2.6 3.5 0.00 0.15 0.00 88 1012.6
20260507031520 62 359 4.3 7.0 0.00 0.15 0.00 88 1013.1
20260507030526 63 18 2.6 4.3 0.00 0.15 0.00 88 1012.4
20260507025531 63 17 2.6 4.3 0.00 0.15 0.00 88 1012.2
20260507024519 63 11 2.6 3.5 0.00 0.15 0.00 88 1012.1
20260507023544 63 34 3.5 5.2 0.00 0.15 0.00 89 1012.1
20260507022550 64 355 3.5 7.0 0.00 0.15 0.00 91 1012.1
20260507021537 64 32 2.6 3.5 0.00 0.15 0.00 95 1011.9
20260507020523 64 20 2.6 3.5 0.00 0.15 0.00 96 1011.8
20260507015528 64 20 2.6 3.5 0.00 0.15 0.00 96 1011.9
20260507014515 64 27 2.6 3.5 0.00 0.15 0.00 97 1011.9
20260507013521 65 48 1.7 2.6 0.00 0.15 0.00 99 1011.7
20260507012547 65 16 2.6 3.5 0.00 0.15 0.00 99 1011.9
20260507011532 65 27 0.9 2.6 0.00 0.15 0.00 99 1012.3
20260507010540 65 182 0.9 2.6 0.00 0.15 0.00 99 1012.2
20260507005545 66 58 1.7 3.5 0.00 0.15 0.00 99 1011.9
20260507004531 66 6 1.7 2.6 0.00 0.15 0.00 99 1011.7
20260507003518 66 182 0.9 1.7 0.00 0.15 0.00 99 1011.6
20260507002544 66 340 0.9 1.7 0.00 0.15 0.00 99 1011.4
20260507001529 66 0.0 0.0 0.00 0.15 0.00 99 1011.5
20260507000517 67 340 0.0 0.9 0.00 0.15 0.00 99 1011.2
20260506235522 68 35 1.7 2.6 0.00 0.15 0.15 98 1011.2
20260506234528 68 49 0.9 1.7 0.00 0.15 0.15 96 1011.3
20260506233515 69 337 0.9 1.7 0.00 0.15 0.15 93 1010.8
20260506232541 69 203 0.0 0.9 0.00 0.15 0.15 91 1010.5
20260506231526 69 194 1.7 4.3 0.00 0.15 0.15 90 1010.6
20260506230532 69 193 1.7 2.6 0.00 0.15 0.15 90 1010.6
20260506225520 70 188 1.7 3.5 0.00 0.15 0.15 89 1010.5
20260506224525 70 200 2.6 4.3 0.00 0.15 0.15 89 1010.4
20260506223530 70 189 2.6 5.2 0.00 0.15 0.15 88 1010.3
20260506222518 70 198 1.7 3.5 0.00 0.15 0.15 87 1010.5
20260506221523 70 209 2.6 4.3 0.00 0.15 0.15 88 1010.3
20260506220549 70 189 1.7 3.5 0.00 0.15 0.15 89 1010.4
20260506215516 70 188 3.5 5.2 0.00 0.15 0.15 89 1010.4